Погода на Алтае

Китай     47°50′34″N   88°08′13″E
темп.,
°C
ветер,
м/с
пор.,
м/с
влажн.,
%
обл.,
%
осадки,
мм/ч
давл.,
гПа
погр.,
м
8 марта, пн
пн823:00−4ссв115346 0.0 102522
02:00−5св125262 0.0 102521
05:00−4ссв1151100 0.0 102421
08:00−7сз015593 0.0 102421
11:00−3юз016182 0.0 102321
14:00−2ююз117088 0.0 102178
17:000ююз117583 0.0 101965
20:00−5ююз007476 0.0 102221
9 марта, вт
вт923:00−5ююз007599 0.0 102621
02:00−5зюз1185100 0.1 102821
05:00−6зюз0091100 0.1 102921
08:00−7всв1193100 0.1 103221
11:00−4з119087 0.0 103158
14:00−2зюз118944 0.0 1029137
17:00−2зюз11935 0.0 1027151
20:00−5ссв118814 0.0 102821
10 марта, ср
ср1023:00−5ссв11630 0.0 103021
02:00−5св22510 0.0 102921
05:00−3св224894 0.0 102721
08:00−3ссв115697 0.0 102623
11:000св117099 0.0 102425
14:00+1з118489 0.0 102147
17:00+2зсз019017 0.0 101931
20:00−1с11719 0.0 102022
11 марта, чт
чт1123:00−1св22573 0.0 102322
02:00−1св225650 0.0 102322
05:00−1св225533 0.0 102222
08:00−2св115317 0.0 102222
11:00+2всв11580 0.0 102122
14:00+2ссв227417 0.0 101783
17:00+5зсз127283 0.0 101432
20:00−2всв118192 0.0 101724
12 марта, пт
пт1223:00−1юв2275100 0.0 102129
02:00−2ю1280100 0.1 102321
05:00−3юв2390100 0.1 102638
08:00−5вюв2292100 0.1 102824
11:00−1юв00795 0.0 102666
14:000зсз11792 0.0 1023185
17:00+5всв245755 0.0 1020396
20:00−1ссз127160 0.0 102022